FW6482 Weather Reports


time (UTC)temp
F
wind
direction
speed
knots
gust
knots
rain 1hr
in
rain 24hr
in
rain mn
in
humidity
%
barometer
mb
20260508213026 51 56 0.9 3.5 0.00 0.00 0.00 73 1015.9
20260508211522 52 65 0.9 2.6 0.00 0.00 0.00 71 1015.8
20260508210021 52 65 0.9 2.6 0.00 0.00 0.00 70 1015.7
20260508204522 53 65 0.9 1.7 0.00 0.00 0.00 68 1015.7
20260508203021 53 65 0.9 2.6 0.00 0.00 0.00 67 1015.8
20260508201519 54 65 0.9 2.6 0.00 0.00 0.00 65 1015.7
20260508200021 55 65 0.0 1.7 0.00 0.00 0.00 63 1015.6
20260508194518 56 65 0.9 2.6 0.00 0.00 0.00 62 1015.5
20260508193017 56 65 0.9 1.7 0.00 0.00 0.00 60 1015.4
20260508191519 57 65 0.9 2.6 0.00 0.00 0.00 59 1015.1
20260508190016 58 65 0.9 1.7 0.00 0.00 0.00 59 1014.9
20260508184516 59 65 0.9 2.6 0.00 0.00 0.00 59 1014.7
20260508183015 60 65 0.9 1.7 0.00 0.00 0.00 57 1014.7
20260508181517 60 65 0.9 2.6 0.00 0.00 0.00 56 1014.5
20260508180013 61 65 0.0 1.7 0.00 0.00 0.00 53 1014.5
20260508174513 61 65 0.0 3.5 0.00 0.00 0.00 52 1014.4
20260508173014 61 65 0.9 3.5 0.00 0.00 0.00 49 1014.3
20260508171511 62 67 1.7 5.2 0.00 0.00 0.00 49 1014.3
20260508170012 62 39 1.7 4.3 0.00 0.00 0.00 48 1014.2
20260508164611 63 39 1.7 5.2 0.00 0.00 0.00 47 1014.2
20260508163010 64 43 1.7 5.2 0.00 0.00 0.00 49 1014.1
20260508161513 64 18 1.7 4.3 0.00 0.00 0.00 48 1014.2
20260508160009 64 55 0.0 3.5 0.00 0.00 0.00 49 1014.3
20260508154508 64 54 2.6 5.2 0.00 0.00 0.00 45 1014.3
20260508153007 64 86 0.0 1.7 0.00 0.00 0.00 46 1014.3
20260508151506 63 86 0.9 6.1 0.00 0.00 0.00 45 1014.5
20260508150006 65 5 0.9 5.2 0.00 0.00 0.00 43 1014.5
20260508144506 64 102 2.6 5.2 0.00 0.00 0.00 43 1014.6
20260508143005 64 59 0.9 10.4 0.00 0.00 0.00 42 1014.6
20260508141504 65 24 3.5 7.0 0.00 0.00 0.00 42 1014.7
20260508140002 65 107 1.7 7.8 0.00 0.00 0.00 43 1014.7
20260508134501 64 97 2.6 7.8 0.00 0.00 0.00 44 1014.8
20260508133112 64 101 4.3 7.0 0.00 0.00 0.00 44 1014.8
20260508131602 64 118 2.6 7.8 0.00 0.00 0.00 44 1015.0
20260508130111 63 107 2.6 7.0 0.00 0.00 0.00 45 1015.1
20260508124558 63 169 1.7 5.2 0.00 0.00 0.00 46 1015.1
20260508123108 62 189 4.3 8.7 0.00 0.00 0.00 49 1015.2
20260508121606 62 58 2.6 6.1 0.00 0.00 0.00 51 1015.2
20260508120058 62 117 2.6 8.7 0.00 0.00 0.00 50 1015.1
20260508114556 64 123 3.5 7.8 0.00 0.00 0.00 45 1015.1
20260508113058 63 69 0.9 3.5 0.00 0.00 0.00 45 1015.1
20260508111554 64 74 1.7 5.2 0.00 0.00 0.00 50 1015.1
20260508110056 65 88 2.6 7.8 0.00 0.00 0.00 46 1015.2
20260508104617 65 38 3.5 7.0 0.00 0.00 0.00 52 1015.1
20260508103048 63 85 3.5 7.0 0.00 0.00 0.00 55 1015.2
20260508101549 62 92 2.6 7.8 0.00 0.00 0.00 58 1015.4
20260508100042 62 47 1.7 6.1 0.00 0.00 0.00 60 1015.4
20260508094544 60 105 2.6 6.1 0.00 0.00 0.00 63 1015.5
20260508093037 60 114 2.6 7.0 0.00 0.00 0.00 64 1015.5
20260508091533 59 88 1.7 7.0 0.00 0.00 0.00 69 1015.5
20260508090031 58 105 2.6 5.2 0.00 0.00 0.00 74 1015.6
20260508084525 57 108 1.7 6.1 0.00 0.00 0.00 77 1015.5
20260508083022 55 111 4.3 7.0 0.00 0.00 0.00 78 1015.5
20260508081518 54 111 2.6 6.1 0.00 0.00 0.00 80 1015.5
20260508080014 54 117 1.7 5.2 0.00 0.00 0.00 82 1015.6
20260508074511 53 123 0.9 3.5 0.00 0.00 0.00 84 1015.5
20260508073007 52 123 1.7 5.2 0.00 0.00 0.00 85 1015.6
20260508071506 51 121 2.6 6.1 0.00 0.00 0.00 87 1015.5
20260508070142 50 139 4.3 7.0 0.00 0.00 0.00 88 1015.5
20260508064608 50 12 0.9 2.6 0.00 0.00 0.00 89 1015.4
20260508063052 49 12 0.9 2.6 0.00 0.00 0.00 90 1015.2
20260508061552 48 12 1.7 3.5 0.00 0.00 0.00 91 1015.1
20260508060046 48 5 0.9 3.5 0.00 0.00 0.00 91 1015.0
20260508054545 47 5 1.7 3.5 0.00 0.00 0.00 91 1014.9
20260508053043 47 360 0.9 2.6 0.00 0.00 0.00 92 1014.9
20260508051537 47 360 0.9 2.6 0.00 0.00 0.00 92 1014.9
20260508050034 47 360 0.0 1.7 0.00 0.00 0.00 92 1014.8
20260508044532 47 360 0.9 1.7 0.00 0.00 0.00 91 1014.7
20260508043050 47 360 0.0 1.7 0.00 0.00 0.00 91 1014.6
20260508041530 47 360 0.9 2.6 0.00 0.00 0.00 91 1014.5
20260508040030 47 360 0.9 1.7 0.00 0.00 0.00 91 1014.5
20260508034526 47 360 0.9 2.6 0.00 0.00 0.00 91 1014.5
20260508033024 47 360 0.0 1.7 0.00 0.00 0.00 90 1014.4
20260508031524 47 360 0.0 1.7 0.00 0.00 0.00 90 1014.4
20260508030032 47 360 1.7 3.5 0.00 0.00 0.00 90 1014.3
20260508024523 47 360 0.9 2.6 0.00 0.00 0.00 90 1014.4
20260508023021 47 360 0.0 1.7 0.00 0.00 0.00 90 1014.4
20260508021519 47 360 0.0 2.6 0.00 0.00 0.00 89 1014.3
20260508020018 47 360 0.0 1.7 0.00 0.00 0.00 89 1014.4
20260508014518 47 360 0.9 2.6 0.00 0.00 0.00 89 1014.3
20260508013016 48 360 0.9 3.5 0.00 0.00 0.00 88 1014.3
20260508011515 48 360 0.9 2.6 0.00 0.00 0.00 88 1014.4
20260508010138 48 360 0.9 2.6 0.00 0.00 0.00 87 1014.3
20260508004511 48 360 1.7 2.6 0.00 0.01 0.00 86 1014.4
20260508003009 48 360 0.9 1.7 0.00 0.01 0.00 83 1014.5
20260508001605 49 360 0.0 0.9 0.00 0.01 0.00 83 1014.4
20260507234540 49 360 0.0 0.0 0.00 0.01 0.00 82 1014.5
20260507231529 50 360 0.0 0.9 0.00 0.01 0.00 80 1014.7
20260507230024 50 360 0.0 0.9 0.00 0.01 0.00 81 1014.7
20260507224523 51 360 0.9 1.7 0.00 0.01 0.00 80 1014.6
20260507223021 51 360 0.0 0.9 0.00 0.01 0.00 80 1014.5
20260507221518 51 360 0.0 1.7 0.00 0.01 0.00 78 1014.5
20260507214512 52 360 0.9 1.7 0.00 0.01 0.01 77 1014.5